Wind_Speed
18 16 14 13 16 18 18 18 19 17 16 14 13 13 15 15 15 16 15 14 12 11 11 11 9 7 6 4 3 4 4 3 3
21 20 17 17 16 17 19 21 21 20 19 18 15 15 16 18 18 19 18 17 14 13 12 12 11 9 8 6 5 5 6 5 4
22 22 22 21 20 19 18 20 22 23 23 23 20 19 18 18 20 20 21 20 18 15 13 13 14 12 10 9 9 9 9 9 6
24 24 24 24 23 22 22 20 20 22 25 26 25 25 23 21 22 23 23 22 23 18 16 15 15 15 13 12 12 12 12 12 10
25 26 28 26 26 26 25 24 23 22 22 24 27 29 29 27 25 24 24 25 24 23 20 18 16 15 15 15 15 15 14 13 13
27 26 28 29 29 28 27 26 26 26 26 24 24 26 28 29 28 27 26 27 26 26 24 22 20 18 17 17 17 17 16 14 15
32 31 30 29 30 30 30 31 31 29 29 29 26 25 27 28 30 30 29 30 29 27 27 27 26 24 22 21 20 19 18 18 16
35 35 35 34 32 32 32 32 33 33 32 30 30 29 28 28 30 32 33 32 31 31 29 30 29 28 26 24 23 22 20 20 18
34 35 36 37 36 35 34 34 35 36 36 35 35 31 32 30 30 32 35 35 34 33 32 32 30 30 30 28 27 25 24 23 21
30 32 34 36 38 38 37 37 37 37 38 38 37 36 34 33 33 33 35 37 36 36 35 34 33 33 33 32 30 29 29 27 24
34 32 32 33 34 38 41 41 40 39 38 38 38 39 38 37 34 35 35 37 38 38 37 36 36 36 35 35 34 32 32 31 29
36 38 38 38 37 37 37 39 41 42 42 39 39 40 41 41 40 38 35 36 38 39 40 39 39 38 37 37 37 36 36 35 34
33 35 39 41 41 41 41 42 41 41 42 42 43 43 43 43 43 42 42 40 40 40 41 43 42 41 40 40 39 39 39 39 38
39 38 38 39 42 43 44 44 45 45 44 43 43 44 45 46 45 43 43 43 44 42 43 42 44 44 43 43 42 42 41 41 42
44 43 40 39 39 42 44 46 48 48 48 48 46 45 46 46 46 46 45 44 46 47 46 45 46 44 44 45 45 44 45 43 44
50 49 47 46 44 43 43 44 48 50 51 51 51 51 49 48 47 47 47 46 45 47 46 52 54 44 43 44 45 48 49 47 46
53 53 53 50 49 47 47 47 46 49 52 53 54 54 54 53 51 50 48 47 47 46 49 59 40 47 52 45 45 47 48 49 48
55 55 55 53 50 50 50 50 50 49 50 53 54 56 56 56 56 54 53 52 50 48 48 52 51 56 48 45 50 50 50 47 41
58 58 56 56 55 54 54 54 54 53 52 52 54 56 57 59 59 58 58 58 56 54 51 50 50 52 50 48 44 46 42 31 44
63 62 61 59 60 58 57 57 56 55 55 54 54 55 57 58 60 61 62 61 61 59 58 55 54 55 52 52 56 53 47 52 58
Wind_Direction
243 243 243 242 236 232 235 233 232 230 231 228 223 224 225 223 218 211 204 204 207 212 215 216 219 219 222 216 205 191 189 173 161
245 243 239 244 242 235 234 236 236 234 234 233 232 232 230 226 226 221 214 214 218 222 224 225 225 227 233 243 248 233 222 208 205
245 244 242 240 240 241 237 237 235 237 237 238 237 237 238 234 229 229 225 220 221 225 225 228 228 227 230 242 255 254 235 225 215
245 246 244 243 242 243 243 241 240 238 240 241 240 242 241 241 238 230 229 227 228 227 231 231 230 230 229 236 248 257 250 235 224
249 248 248 248 246 245 246 246 245 245 242 243 243 242 242 241 241 239 232 232 233 231 230 235 240 242 238 237 243 250 254 246 235
251 250 249 249 249 250 248 248 250 249 248 245 244 244 241 239 238 238 237 233 233 235 233 236 239 241 246 247 244 248 250 248 244
252 252 251 249 248 249 249 249 246 248 249 249 247 245 244 238 236 235 236 237 234 235 238 236 238 240 240 242 246 250 251 251 246
251 249 250 251 250 248 246 246 247 248 249 251 249 246 245 243 238 235 234 236 237 235 235 240 242 242 244 245 247 248 252 254 253
254 252 249 249 250 251 249 247 247 248 249 249 248 248 248 244 242 238 236 236 237 238 238 239 241 243 245 246 247 251 252 254 255
253 254 253 251 250 251 253 251 249 248 249 249 251 252 247 248 245 242 240 238 239 239 240 241 242 243 243 245 247 249 252 256 255
250 249 251 253 252 251 251 251 251 252 251 250 249 251 253 246 249 247 245 244 242 241 241 242 243 245 246 246 246 247 249 254 258
256 254 250 248 250 253 254 255 254 252 252 251 250 250 249 250 250 247 251 250 248 245 245 244 245 246 247 248 249 248 249 251 254
263 261 255 250 248 248 250 253 255 254 253 251 251 252 252 250 249 248 247 249 249 248 247 247 247 247 249 250 250 251 250 251 252
267 262 260 257 252 249 249 249 251 253 253 253 251 250 251 252 250 249 248 250 247 249 249 248 248 248 249 251 251 252 252 253 255
267 267 264 261 259 256 250 249 250 250 251 252 252 252 251 251 251 251 249 248 250 250 252 253 251 250 251 252 254 255 255 252 254
265 266 266 265 263 263 262 254 248 249 251 251 250 251 251 252 252 250 250 248 248 249 250 257 247 249 254 254 256 256 260 260 257
261 263 263 263 263 264 262 263 258 251 248 251 251 250 250 250 251 252 251 250 248 247 249 251 250 254 248 250 254 257 258 261 265
260 258 259 260 260 260 261 261 260 257 253 249 250 251 251 251 249 249 251 251 251 249 247 253 255 253 256 256 258 256 259 260 266
258 255 255 257 258 259 260 259 259 258 257 253 250 249 250 251 250 250 248 250 251 252 251 251 252 254 256 254 255 247 249 250 247
256 253 253 256 257 257 258 258 258 257 255 255 254 252 251 250 250 251 251 249 250 252 252 251 251 252 254 253 253 256 255 254 256
Height
5857 5858 5859 5861 5862 5864 5865 5866 5867 5869 5870 5872 5874 5874 5875 5877 5879 5880 5881 5882 5883 5884 5885 5885 5886 5887 5889 5889 5889 5889 5889 5891 5890
5853 5855 5856 5858 5860 5861 5862 5863 5864 5866 5868 5869 5872 5873 5874 5875 5877 5878 5879 5880 5882 5882 5884 5884 5885 5887 5888 5888 5888 5889 5889 5890 5890
5850 5851 5853 5854 5856 5858 5859 5861 5862 5863 5865 5867 5869 5871 5872 5873 5874 5876 5877 5878 5879 5881 5882 5883 5884 5885 5886 5887 5887 5888 5889 5889 5889
5846 5847 5849 5850 5852 5854 5856 5857 5859 5860 5861 5863 5866 5867 5868 5870 5871 5872 5874 5876 5876 5878 5879 5880 5881 5882 5883 5884 5885 5886 5887 5888 5888
5841 5843 5844 5846 5847 5850 5851 5853 5855 5856 5857 5858 5860 5862 5864 5866 5868 5869 5871 5872 5873 5876 5877 5878 5879 5880 5881 5882 5883 5884 5885 5885 5886
5836 5838 5839 5841 5842 5845 5847 5848 5850 5851 5852 5854 5856 5857 5859 5861 5863 5865 5866 5867 5870 5871 5873 5874 5875 5877 5878 5879 5880 5881 5881 5882 5883
5831 5832 5833 5835 5836 5838 5840 5842 5844 5845 5847 5849 5851 5853 5854 5856 5858 5860 5862 5863 5865 5867 5869 5870 5871 5873 5874 5876 5877 5878 5878 5878 5880
5825 5826 5827 5828 5830 5831 5833 5835 5837 5839 5841 5843 5846 5848 5849 5850 5852 5854 5856 5858 5860 5861 5863 5865 5867 5868 5870 5872 5873 5874 5874 5875 5876
5818 5819 5821 5822 5823 5824 5826 5828 5830 5832 5834 5836 5839 5842 5843 5845 5846 5848 5850 5852 5854 5856 5857 5860 5862 5864 5865 5867 5869 5870 5870 5871 5872
5811 5812 5814 5816 5817 5818 5819 5821 5822 5824 5826 5829 5831 5834 5836 5838 5840 5842 5843 5845 5847 5849 5852 5854 5856 5858 5859 5861 5863 5865 5865 5866 5867
5804 5805 5806 5808 5810 5811 5812 5813 5814 5816 5818 5821 5823 5826 5828 5831 5833 5835 5837 5839 5841 5843 5845 5848 5850 5851 5853 5855 5857 5859 5859 5861 5863
5798 5798 5799 5800 5801 5803 5805 5806 5807 5809 5810 5813 5815 5817 5819 5823 5825 5828 5830 5832 5834 5836 5837 5840 5842 5844 5846 5848 5850 5852 5853 5854 5856
5789 5790 5791 5792 5793 5793 5795 5797 5798 5800 5802 5804 5806 5808 5810 5814 5817 5820 5821 5824 5826 5827 5829 5832 5834 5836 5838 5840 5842 5844 5846 5847 5848
5781 5781 5782 5783 5784 5785 5785 5786 5788 5790 5792 5795 5797 5799 5801 5803 5807 5810 5813 5815 5816 5819 5821 5823 5825 5828 5830 5831 5833 5835 5838 5840 5841
5770 5771 5772 5773 5774 5775 5776 5777 5778 5779 5781 5784 5786 5789 5792 5793 5796 5800 5803 5807 5809 5811 5813 5814 5816 5819 5822 5824 5824 5826 5828 5831 5833
5759 5760 5761 5762 5763 5764 5765 5766 5768 5769 5770 5772 5775 5778 5781 5784 5786 5789 5792 5796 5799 5802 5805 5803 5804 5808 5812 5815 5817 5818 5818 5821 5825
5748 5748 5748 5750 5751 5752 5753 5754 5756 5757 5758 5760 5763 5766 5770 5773 5776 5778 5782 5786 5789 5792 5793 5793 5795 5798 5801 5804 5807 5809 5810 5811 5813
5735 5736 5736 5737 5738 5739 5741 5742 5743 5744 5746 5748 5750 5754 5759 5761 5764 5768 5770 5773 5777 5780 5783 5783 5786 5788 5790 5793 5798 5799 5801 5802 5803
5720 5722 5723 5724 5725 5726 5727 5729 5731 5731 5732 5734 5737 5740 5744 5748 5751 5754 5757 5760 5764 5768 5772 5774 5776 5778 5781 5785 5786 5787 5792 5795 5790
5703 5706 5707 5709 5711 5713 5713 5714 5716 5719 5719 5720 5722 5725 5729 5733 5738 5742 5744 5746 5751 5754 5758 5762 5765 5768 5770 5774 5775 5777 5781 5787 5787